Time,TemperatureF,DewpointF,PressureIn,WindDirection,WindDirectionDegrees,WindSpeedMPH,WindSpeedGustMPH,Humidity,HourlyPrecipIn,Conditions,Clouds,dailyrainin,SoftwareType,DateUTC
2013-06-16 00:04:00,68.0,58.7,29.71,South,180,5.4,5.4,72,0.00,,,0.00,VWS V14.01,2013-06-15 14:04:00,
2013-06-16 00:09:00,68.0,58.7,29.71,South,180,5.4,5.4,72,0.00,,,0.00,VWS V14.01,2013-06-15 14:09:00,
2013-06-16 00:14:00,67.8,58.5,29.71,South,180,5.4,5.4,72,0.00,,,0.00,VWS V14.01,2013-06-15 14:14:00,
2013-06-16 00:19:00,67.6,58.3,29.71,South,180,5.4,5.4,72,0.00,,,0.00,VWS V14.01,2013-06-15 14:19:00,
2013-06-16 00:24:00,67.6,58.7,29.71,SSE,158,4.3,4.3,73,0.00,,,0.00,VWS V14.01,2013-06-15 14:24:00,
2013-06-16 00:29:00,67.5,58.5,29.71,SSE,158,2.7,4.3,73,0.00,,,0.00,VWS V14.01,2013-06-15 14:29:00,
2013-06-16 00:34:00,67.6,58.7,29.71,SSW,202,4.9,4.9,73,0.00,,,0.00,VWS V14.01,2013-06-15 14:34:00,
2013-06-16 00:39:00,67.3,58.3,29.71,SSW,202,4.9,4.9,73,0.00,,,0.00,VWS V14.01,2013-06-15 14:39:00,
2013-06-16 00:44:00,67.5,58.9,29.71,South,180,3.8,3.8,74,0.00,,,0.00,VWS V14.01,2013-06-15 14:44:00,
2013-06-16 00:49:00,67.5,58.9,29.71,SSE,158,2.7,2.7,74,0.00,,,0.00,VWS V14.01,2013-06-15 14:49:00,
2013-06-16 00:54:00,67.3,58.7,29.71,SSE,158,2.7,2.7,74,0.00,,,0.00,VWS V14.01,2013-06-15 14:54:00,
2013-06-16 00:59:00,67.6,58.7,29.71,SSE,158,2.7,2.7,73,0.00,,,0.00,VWS V14.01,2013-06-15 14:59:00,
2013-06-16 01:04:00,67.6,58.7,29.71,SSE,158,3.4,3.4,73,0.00,,,0.00,VWS V14.01,2013-06-15 15:04:00,
2013-06-16 01:09:00,68.0,59.0,29.71,SSW,202,4.3,4.3,73,0.00,,,0.00,VWS V14.01,2013-06-15 15:09:00,
2013-06-16 01:15:00,67.8,58.9,29.71,SSW,202,4.3,4.3,73,0.00,,,0.00,VWS V14.01,2013-06-15 15:15:00,
2013-06-16 01:20:00,67.8,58.9,29.71,SSE,158,0.0,0.0,73,0.00,,,0.00,VWS V14.01,2013-06-15 15:20:00,
2013-06-16 01:25:00,68.0,59.0,29.71,SSE,158,0.0,0.0,73,0.00,,,0.00,VWS V14.01,2013-06-15 15:25:00,
2013-06-16 01:30:00,68.0,59.0,29.68,SSE,158,0.0,0.0,73,0.00,,,0.00,VWS V14.01,2013-06-15 15:30:00,
2013-06-16 01:35:00,68.2,59.2,29.68,WSW,248,0.0,0.0,73,0.00,,,0.00,VWS V14.01,2013-06-15 15:35:00,
2013-06-16 01:40:00,67.8,58.9,29.68,WSW,248,0.0,0.0,73,0.00,,,0.00,VWS V14.01,2013-06-15 15:40:00,
2013-06-16 01:45:00,67.8,58.9,29.68,South,180,0.0,0.0,73,0.00,,,0.00,VWS V14.01,2013-06-15 15:45:00,
2013-06-16 01:50:00,67.8,58.9,29.68,SSE,158,2.7,2.7,73,0.00,,,0.00,VWS V14.01,2013-06-15 15:50:00,
2013-06-16 01:55:00,67.6,58.7,29.68,SE,135,1.6,1.6,73,0.00,,,0.00,VWS V14.01,2013-06-15 15:55:00,
2013-06-16 02:00:00,67.5,58.9,29.68,SE,135,4.0,4.0,74,0.00,,,0.00,VWS V14.01,2013-06-15 16:00:00,
2013-06-16 02:05:00,67.5,58.9,29.68,SE,135,4.0,4.0,74,0.00,,,0.00,VWS V14.01,2013-06-15 16:05:00,
2013-06-16 02:10:00,67.1,58.5,29.68,South,180,5.6,5.6,74,0.00,,,0.00,VWS V14.01,2013-06-15 16:10:00,
2013-06-16 02:15:00,67.1,58.5,29.68,SSW,202,3.6,3.6,74,0.00,,,0.00,VWS V14.01,2013-06-15 16:15:00,
2013-06-16 02:20:00,66.9,58.8,29.68,SSE,158,2.7,2.7,75,0.00,,,0.00,VWS V14.01,2013-06-15 16:20:00,
2013-06-16 02:25:00,67.1,58.9,29.68,South,180,3.4,3.4,75,0.00,,,0.00,VWS V14.01,2013-06-15 16:25:00,
2013-06-16 02:30:00,67.1,58.9,29.68,South,180,3.4,3.4,75,0.00,,,0.00,VWS V14.01,2013-06-15 16:30:00,
2013-06-16 02:35:00,66.9,58.8,29.68,South,180,3.4,3.4,75,0.00,,,0.00,VWS V14.01,2013-06-15 16:35:00,
2013-06-16 02:40:00,66.9,58.8,29.68,South,180,3.4,3.4,75,0.00,,,0.00,VWS V14.01,2013-06-15 16:40:00,
2013-06-16 02:45:00,67.1,58.9,29.68,South,180,3.4,3.4,75,0.00,,,0.00,VWS V14.01,2013-06-15 16:45:00,
2013-06-16 02:50:00,66.9,58.8,29.68,South,180,3.4,3.4,75,0.00,,,0.00,VWS V14.01,2013-06-15 16:50:00,
2013-06-16 02:55:00,66.7,58.9,29.68,SSE,158,2.9,2.9,76,0.00,,,0.00,VWS V14.01,2013-06-15 16:55:00,
2013-06-16 03:00:00,66.9,59.1,29.68,SSW,202,3.1,3.1,76,0.00,,,0.00,VWS V14.01,2013-06-15 17:00:00,
2013-06-16 03:06:00,66.9,59.1,29.68,SE,135,3.6,3.6,76,0.00,,,0.00,VWS V14.01,2013-06-15 17:06:00,
2013-06-16 03:11:00,66.7,58.9,29.68,SSE,158,2.7,2.7,76,0.00,,,0.00,VWS V14.01,2013-06-15 17:11:00,
2013-06-16 03:16:00,66.6,58.8,29.68,SSE,158,2.7,2.7,76,0.00,,,0.00,VWS V14.01,2013-06-15 17:16:00,
2013-06-16 03:21:00,66.6,59.1,29.68,SSE,158,2.7,2.7,77,0.00,,,0.00,VWS V14.01,2013-06-15 17:21:00,
2013-06-16 03:26:00,66.4,59.0,29.68,SE,135,2.2,2.2,77,0.00,,,0.00,VWS V14.01,2013-06-15 17:26:00,
2013-06-16 03:31:00,66.4,59.0,29.68,SE,135,2.2,2.2,77,0.00,,,0.00,VWS V14.01,2013-06-15 17:31:00,
2013-06-16 03:36:00,66.4,59.0,29.68,SE,135,1.3,1.3,77,0.00,,,0.00,VWS V14.01,2013-06-15 17:36:00,
2013-06-16 03:41:00,66.4,59.0,29.68,SE,135,1.3,1.3,77,0.00,,,0.00,VWS V14.01,2013-06-15 17:41:00,
2013-06-16 03:46:00,66.4,59.0,29.68,SE,135,1.3,1.3,77,0.00,,,0.00,VWS V14.01,2013-06-15 17:46:00,
2013-06-16 03:51:00,66.4,59.0,29.68,SE,135,1.3,1.3,77,0.00,,,0.00,VWS V14.01,2013-06-15 17:51:00,
2013-06-16 03:56:00,66.2,58.8,29.68,SE,135,1.3,1.3,77,0.00,,,0.00,VWS V14.01,2013-06-15 17:56:00,
2013-06-16 04:01:00,66.2,58.8,29.68,SE,135,1.3,1.3,77,0.00,,,0.00,VWS V14.01,2013-06-15 18:01:00,
2013-06-16 04:06:00,65.8,58.8,29.68,SE,135,1.3,1.3,78,0.00,,,0.00,VWS V14.01,2013-06-15 18:06:00,
2013-06-16 04:11:00,65.8,58.8,29.68,SE,135,0.0,0.0,78,0.00,,,0.00,VWS V14.01,2013-06-15 18:11:00,
2013-06-16 04:16:00,65.7,59.0,29.68,SE,135,2.5,2.5,79,0.00,,,0.00,VWS V14.01,2013-06-15 18:16:00,
2013-06-16 04:21:00,65.7,58.6,29.68,SE,135,2.5,2.5,78,0.00,,,0.00,VWS V14.01,2013-06-15 18:21:00,
2013-06-16 04:26:00,65.8,58.8,29.68,SE,135,2.5,2.5,78,0.00,,,0.00,VWS V14.01,2013-06-15 18:26:00,
2013-06-16 04:31:00,65.8,58.8,29.68,SE,135,1.3,2.2,78,0.00,,,0.00,VWS V14.01,2013-06-15 18:31:00,
2013-06-16 04:36:00,65.7,59.0,29.68,SE,135,1.3,1.3,79,0.00,,,0.00,VWS V14.01,2013-06-15 18:36:00,
2013-06-16 04:41:00,65.7,59.0,29.68,SE,135,1.3,1.3,79,0.00,,,0.00,VWS V14.01,2013-06-15 18:41:00,
2013-06-16 04:46:00,65.5,58.8,29.68,SE,135,1.3,1.3,79,0.00,,,0.00,VWS V14.01,2013-06-15 18:46:00,
2013-06-16 04:51:00,65.5,58.8,29.68,SE,135,1.3,1.3,79,0.00,,,0.00,VWS V14.01,2013-06-15 18:51:00,
2013-06-16 04:57:00,65.3,58.6,29.68,SSE,158,1.6,1.6,79,0.00,,,0.00,VWS V14.01,2013-06-15 18:57:00,
2013-06-16 05:02:00,65.5,58.8,29.68,SSE,158,1.6,1.6,79,0.00,,,0.00,VWS V14.01,2013-06-15 19:02:00,
2013-06-16 05:07:00,65.7,59.0,29.68,SSE,158,1.6,1.6,79,0.00,,,0.00,VWS V14.01,2013-06-15 19:07:00,
2013-06-16 05:12:00,65.7,59.0,29.68,SSE,158,3.4,3.4,79,0.00,,,0.00,VWS V14.01,2013-06-15 19:12:00,
2013-06-16 05:17:00,65.7,58.6,29.68,SSW,202,0.0,0.0,78,0.00,,,0.00,VWS V14.01,2013-06-15 19:17:00,